Torna al catalogo

IUS R/B(1)

AttivoHEO
NORAD 21640·ROCKET BODY·🇺🇸 United States

Lanciato Aug 2, 1991 da Cape Canaveral Space Force Station

Loading…

Prossimi Passaggi (prossime 24 ore)

TLE

AggiornatoSource: Space-Track

Epoca: Sep 14, 2026, 06:50 UTC

1 21640U 91054C   26257.28521740  .00001905  00000-0  53401-3 0  9994
2 21640  26.7518 345.1728 6630084 304.4193   9.7673  3.13081579342812

Traccia IUS R/B(1) in tempo reale con AllMySat

Download on the App Store